Location: Home
(42.5358°N, 72.7383°W)
Time: 15:05:51
(UTC-05:00)

Explorer 11/Cluster Stage 4 - Pass Details

Date: 20 December 2025
Orbit: 463 x 1179 km, 28.8° (Epoch: 21 January)

Event Time Altitude Azimuth Distance (km) Brightness Sun altitude
Rises 18:45:46 0° 255° (WSW) 4,049 11.6 -25.8°
Reaches altitude 10° 18:49:14 10° 243° (WSW) 3,093 10.5 -26.4°
Maximum altitude 18:55:09 24° 193° (SSW) 2,170 9.0 -27.5°
Enters shadow 18:58:44 17° 157° (SSE) 2,484 8.9 -28.1°
